PDT,Max TemperatureF,Mean TemperatureF,Min TemperatureF,Max Dew PointF,MeanDew PointF,Min DewpointF,Max Humidity, Mean Humidity, Min Humidity, Max Sea Level PressureIn, Mean Sea Level PressureIn, Min Sea Level PressureIn, Max VisibilityMiles, Mean VisibilityMiles, Min VisibilityMiles, Max Wind SpeedMPH, Mean Wind SpeedMPH, Max Gust SpeedMPH,PrecipitationIn, CloudCover, Events, WindDirDegrees
2011-10-1,92,85,76,51,47,43,39,29,20,30.24,30.17,30.11,10,10,10,10,4,,0.00,1,,98
2011-10-2,93,82,70,47,45,43,40,28,20,30.23,30.15,30.09,10,10,10,12,6,17,0.00,1,,92
2011-10-3,88,78,66,63,54,45,84,47,27,30.13,29.95,29.81,10,10,5,21,7,30,0.00,4,Rain-Thunderstorm,43
2011-10-4,70,65,61,63,60,55,94,81,63,30.04,29.89,29.78,10,9,2,17,11,23,0.00,6,Rain-Thunderstorm,67
2011-10-5,69,62,55,57,49,40,94,63,40,30.00,29.76,29.60,10,10,4,25,13,34,0.25,6,Rain,190
2011-10-6,64,57,50,42,37,28,69,48,27,30.12,29.98,29.81,10,10,6,18,10,28,0.00,2,,218
2011-10-7,67,56,47,40,35,30,74,43,26,30.27,30.18,30.05,10,10,6,10,4,,0.00,1,,79
2011-10-8,74,62,50,42,37,32,74,43,21,30.33,30.21,30.01,10,8,2,17,6,26,0.00,0,,55
2011-10-9,74,63,54,41,37,34,52,38,25,30.28,30.22,30.15,10,10,10,12,6,,0.00,0,,81
2011-10-10,76,62,50,42,39,34,68,44,23,30.20,30.14,30.07,10,10,6,7,3,,0.00,0,,60
2011-10-11,82,67,52,43,40,37,67,39,20,30.20,30.14,30.10,10,10,10,8,3,,0.00,0,,344
2011-10-12,87,70,55,45,36,27,63,33,11,30.29,30.22,30.17,10,10,10,10,4,,0.00,0,,14
2011-10-13,89,71,54,37,31,25,45,25,10,30.24,30.14,29.90,10,9,2,6,3,,0.01,0,,335
2011-10-14,90,72,55,41,36,30,47,29,13,30.18,30.06,29.85,10,10,10,8,3,,0.00,0,,55
2011-10-15,91,74,57,40,37,32,51,29,13,30.18,30.11,30.06,10,10,10,7,3,,0.00,0,,62
2011-10-16,92,76,60,40,37,35,41,28,15,30.19,30.13,30.09,10,10,6,9,5,,0.00,0,,5
2011-10-17,86,74,63,41,38,26,40,22,16,30.31,30.15,30.05,10,8,2,23,13,29,0.00,0,,41
2011-10-18,86,73,60,26,21,14,26,15,7,30.39,30.27,30.00,10,10,2,20,6,18,0.00,0,,37
2011-10-19,85,70,55,30,28,25,34,22,13,30.17,30.08,29.84,10,9,2,7,3,,0.00,0,,11
2011-10-20,87,70,54,30,29,24,37,25,10,30.24,30.15,29.94,10,10,7,8,2,,0.00,0,,58
2011-10-21,87,70,53,32,30,27,41,26,12,30.35,30.27,30.04,10,10,10,7,3,,0.00,0,,346
2011-10-22,86,70,54,32,29,26,40,25,11,30.38,30.30,30.25,10,10,10,13,3,,0.00,0,,58
2011-10-23,86,72,57,32,30,25,32,23,12,30.32,30.13,29.98,10,7,2,13,4,,0.00,0,,42
2011-10-24,85,70,53,36,32,28,44,26,14,30.20,30.10,29.87,10,8,1,17,4,,0.00,2,,124
2011-10-25,86,77,68,38,35,30,30,23,13,30.10,30.02,29.81,10,10,10,28,11,33,0.00,0,,203
2011-10-26,68,62,55,38,22,3,44,23,11,30.35,30.20,29.99,10,10,10,28,16,38,0.00,2,,20
2011-10-27,68,58,49,10,6,2,19,12,8,30.39,30.15,30.06,10,10,10,16,10,21,0.00,0,,29
2011-10-28,74,58,42,17,12,6,27,18,8,30.44,30.31,30.12,10,9,6,14,5,20,0.00,0,,31
2011-10-29,78,61,45,22,17,14,31,21,9,30.39,30.32,30.26,10,10,6,8,2,,0.00,0,,344
2011-10-30,81,63,45,24,20,17,32,20,10,30.41,30.32,30.27,10,10,10,8,3,,0.00,0,,33
2011-10-31,80,63,47,28,24,21,35,25,13,30.30,30.21,30.10,10,10,10,6,3,,0.00,0,,8